GFSNIL_850_temp_000.txt.gz
Temp
7 7 6 5 5 4 3 3 3 3 2 2 2 1 1 1 1 0 0 -1 -1 -2
6 5 5 4 3 3 3 2 2 1 1 1 1 0 0 -0 -0 -0 -1 -2 -2 -2
6 5 4 3 3 3 2 2 0 -0 -0 -1 -1 -2 -2 -2 -2 -2 -2 -3 -3 -3
4 4 4 3 3 2 1 1 -0 -1 -1 -2 -3 -2 -2 -3 -3 -3 -3 -3 -3 -3
4 3 3 2 2 1 -1 -1 -1 -2 -2 -2 -2 -3 -3 -3 -3 -4 -4 -4 -4 -4
3 2 2 1 0 -0 -1 -1 -1 -2 -2 -2 -3 -3 -3 -3 -3 -4 -4 -4 -4 -4
2 2 1 0 -0 -1 -1 -1 -2 -2 -2 -3 -3 -3 -3 -4 -4 -4 -5 -5 -5 -5
3 1 1 0 -1 -1 -2 -2 -2 -2 -3 -3 -3 -4 -4 -5 -5 -6 -6 -6 -6 -6
1 1 0 -1 -1 -2 -2 -2 -2 -3 -3 -3 -4 -5 -5 -6 -6 -7 -8 -8 -7 -8
0 -0 -0 -2 -2 -2 -2 -2 -3 -3 -3 -4 -5 -6 -6 -7 -8 -8 -9 -10 -9 -9
1 -0 -1 -1 -2 -3 -2 -2 -3 -3 -4 -5 -5 -6 -7 -8 -9 -9 -10 -11 -10 -10
-1 -1 -1 -2 -2 -3 -2 -3 -3 -4 -4 -5 -6 -7 -8 -9 -9 -10 -11 -11 -11 -10
-2 -2 -2 -2 -3 -2 -3 -3 -4 -4 -5 -6 -7 -8 -9 -9 -10 -11 -11 -11 -11 -11
-3 -3 -2 -2 -2 -3 -3 -3 -4 -5 -6 -7 -8 -9 -9 -10 -11 -12 -12 -12 -12 -11

GFSNIL_850_temp_003.txt.gz
Temp
8 7 5 5 4 5 4 3 3 3 2 2 1 0 0 0 0 -0 -1 -1 -1 -1
7 5 4 3 4 3 3 3 2 2 1 0 -0 -1 -2 -2 -2 -2 -2 -2 -2 -2
5 5 3 3 4 3 3 2 2 1 -0 -1 -1 -2 -2 -3 -3 -3 -3 -4 -4 -4
5 4 4 4 3 3 3 2 1 -1 -1 -2 -2 -2 -3 -3 -3 -4 -4 -4 -4 -4
4 4 4 4 3 2 2 0 -1 -1 -2 -2 -2 -3 -3 -3 -4 -4 -4 -5 -5 -5
4 2 2 2 1 1 0 -0 -1 -2 -2 -2 -3 -3 -3 -3 -4 -4 -4 -5 -5 -5
4 3 2 1 -1 -2 -1 -1 -2 -2 -2 -2 -3 -3 -3 -4 -4 -4 -5 -6 -6 -6
3 2 1 0 -1 -2 -1 -2 -2 -2 -2 -3 -3 -3 -4 -4 -5 -5 -6 -7 -7 -8
2 2 1 -1 -2 -2 -2 -2 -2 -2 -3 -3 -3 -4 -4 -5 -6 -7 -8 -8 -9 -9
0 0 0 -1 -2 -2 -2 -2 -2 -3 -3 -3 -4 -5 -6 -7 -7 -8 -8 -9 -10 -10
-0 -0 -1 -2 -3 -2 -2 -2 -2 -3 -3 -4 -5 -6 -7 -8 -8 -9 -9 -10 -10 -11
-2 -2 -3 -3 -3 -2 -3 -2 -3 -3 -4 -4 -5 -6 -8 -8 -9 -10 -10 -11 -11 -11
-2 -2 -3 -3 -2 -2 -3 -3 -3 -4 -4 -5 -7 -8 -9 -9 -10 -11 -11 -11 -11 -12
-3 -3 -2 -2 -2 -2 -3 -3 -4 -4 -5 -6 -7 -9 -10 -11 -11 -12 -12 -12 -12 -12

GFSNIL_850_temp_006.txt.gz
Temp
7 6 5 5 3 3 2 3 3 2 2 1 0 -0 -1 -1 -2 -2 -3 -3 -3 -3
6 6 5 5 5 3 3 3 2 2 2 1 -0 -1 -2 -2 -3 -3 -3 -3 -3 -4
6 6 5 5 4 4 3 3 2 2 1 -0 -2 -2 -3 -3 -3 -3 -4 -4 -4 -4
5 5 4 3 3 1 1 -0 1 1 -1 -1 -2 -2 -3 -3 -3 -3 -4 -4 -5 -5
3 3 3 3 2 2 0 0 -0 -1 -1 -2 -2 -3 -3 -3 -3 -4 -4 -4 -5 -5
3 3 2 2 2 0 -1 -2 -3 -2 -2 -2 -2 -3 -3 -3 -4 -4 -4 -5 -6 -6
3 2 2 1 -0 -2 -1 -2 -2 -2 -2 -2 -3 -3 -3 -4 -4 -5 -5 -6 -7 -7
1 1 0 -0 -0 -1 -1 -1 -2 -2 -3 -3 -3 -3 -4 -4 -5 -6 -6 -7 -8 -9
0 -0 -1 -1 -2 -2 -2 -2 -3 -4 -3 -3 -3 -4 -5 -6 -6 -7 -8 -9 -9 -10
-0 -1 -2 -2 -2 -2 -3 -3 -3 -3 -3 -4 -4 -5 -5 -6 -8 -8 -9 -9 -10 -11
-1 -1 -2 -3 -3 -3 -3 -3 -3 -3 -3 -4 -5 -6 -7 -8 -9 -9 -10 -10 -11 -11
-2 -2 -3 -3 -3 -3 -3 -3 -3 -3 -4 -5 -5 -6 -8 -9 -10 -11 -11 -11 -11 -12
-2 -3 -3 -3 -3 -3 -3 -3 -4 -4 -5 -6 -6 -7 -9 -10 -11 -12 -12 -12 -12 -12
-3 -4 -3 -3 -3 -4 -4 -4 -4 -5 -6 -6 -7 -8 -9 -10 -12 -13 -13 -13 -12 -12

GFSNIL_850_temp_009.txt.gz
Temp
6 6 5 5 4 4 4 4 3 1 1 -0 0 1 -1 -1 -2 -3 -3 -3 -4 -4
5 5 4 4 4 3 3 3 2 0 -1 -2 -2 -1 -2 -3 -3 -3 -4 -4 -4 -4
4 4 3 3 3 3 2 2 1 -0 -2 -2 -3 -2 -2 -3 -3 -3 -4 -4 -4 -5
4 4 3 3 2 2 2 1 -0 -1 -3 -3 -2 -2 -3 -3 -3 -3 -4 -4 -5 -5
3 3 2 2 1 1 -0 -0 -1 -1 -2 -2 -2 -2 -3 -3 -3 -4 -4 -5 -5 -6
3 2 2 1 0 0 -0 -1 -1 -2 -2 -2 -2 -3 -3 -3 -4 -4 -5 -6 -6 -6
2 1 0 -0 -1 -1 -2 -2 -2 -2 -2 -3 -3 -3 -3 -4 -4 -5 -6 -6 -7 -8
1 0 -1 -1 -1 -2 -3 -3 -3 -3 -3 -4 -3 -3 -4 -5 -5 -6 -6 -8 -9 -9
0 -1 -1 -2 -3 -3 -3 -3 -3 -4 -4 -3 -3 -4 -5 -5 -6 -7 -8 -9 -10 -10
-1 -1 -2 -2 -3 -3 -4 -4 -4 -3 -3 -3 -4 -4 -5 -6 -7 -8 -9 -10 -11 -11
-2 -2 -2 -3 -3 -3 -3 -4 -3 -3 -4 -4 -4 -5 -6 -7 -8 -9 -10 -11 -12 -12
-2 -3 -3 -3 -3 -3 -3 -3 -3 -4 -4 -5 -6 -6 -7 -8 -9 -9 -10 -11 -12 -12
-3 -3 -4 -4 -3 -3 -4 -4 -4 -6 -5 -6 -7 -7 -8 -9 -9 -10 -11 -12 -12 -12
-3 -3 -4 -4 -4 -4 -4 -4 -5 -6 -6 -7 -7 -8 -9 -9 -10 -12 -13 -13 -12 -13

GFSNIL_850_temp_012.txt.gz
Temp
6 5 5 4 4 4 3 3 2 2 2 2 0 -1 -1 -2 -2 -3 -3 -4 -4 -4
5 4 4 4 4 3 3 2 2 1 1 -1 -1 -3 -3 -2 -3 -3 -4 -4 -4 -4
4 4 4 3 3 3 2 1 1 0 -0 -1 -2 -2 -3 -2 -3 -3 -4 -4 -4 -5
4 3 3 3 2 1 1 0 0 -0 -1 -2 -3 -2 -3 -3 -3 -3 -4 -4 -5 -5
3 2 2 1 1 1 -0 -1 -1 -1 -2 -3 -2 -2 -3 -3 -3 -4 -4 -4 -5 -5
2 2 1 0 0 -0 -1 -2 -2 -2 -3 -3 -2 -3 -3 -3 -4 -4 -4 -5 -6 -6
1 1 0 -0 -1 -1 -2 -3 -3 -3 -3 -3 -3 -3 -3 -3 -4 -5 -5 -6 -7 -8
1 0 -1 -1 -2 -2 -3 -3 -3 -3 -4 -3 -3 -3 -4 -4 -5 -5 -6 -7 -8 -9
-0 -1 -1 -2 -2 -3 -3 -4 -4 -4 -4 -4 -3 -4 -4 -5 -5 -6 -7 -8 -9 -10
-1 -2 -2 -3 -3 -3 -4 -4 -4 -4 -4 -4 -4 -5 -5 -6 -6 -7 -8 -9 -10 -11
-2 -2 -3 -3 -3 -4 -3 -3 -3 -4 -4 -4 -5 -5 -6 -6 -7 -7 -8 -10 -11 -11
-2 -3 -3 -3 -4 -4 -3 -3 -4 -4 -5 -5 -6 -6 -7 -7 -8 -8 -9 -10 -11 -12
-3 -3 -4 -4 -4 -4 -4 -4 -4 -5 -5 -6 -6 -7 -8 -9 -9 -9 -9 -10 -11 -12
-3 -4 -4 -4 -5 -4 -4 -4 -5 -5 -6 -7 -7 -8 -9 -9 -9 -10 -10 -12 -12 -12

GFSNIL_850_temp_015.txt.gz
Temp
6 5 4 4 4 4 3 3 3 2 2 1 1 -0 -1 -2 -2 -2 -3 -3 -4 -4
5 4 4 4 3 3 3 2 2 1 1 0 -0 -1 -2 -2 -2 -3 -3 -3 -4 -4
4 4 4 3 3 2 2 2 1 0 -0 -1 -1 -2 -2 -2 -3 -3 -3 -4 -4 -4
4 3 3 2 2 1 1 0 -1 -1 -1 -1 -2 -2 -3 -3 -3 -3 -3 -4 -4 -5
3 2 2 1 1 -0 -1 -1 -2 -2 -2 -2 -3 -3 -3 -3 -3 -3 -4 -4 -5 -5
2 1 1 0 -1 -1 -1 -2 -2 -3 -3 -3 -4 -4 -3 -3 -3 -3 -4 -5 -5 -6
1 1 -0 -1 -1 -2 -2 -2 -3 -3 -4 -3 -4 -4 -3 -3 -3 -4 -5 -5 -6 -7
1 -0 -0 -1 -2 -2 -3 -3 -3 -4 -4 -4 -4 -4 -4 -3 -4 -5 -6 -6 -6 -7
0 -0 -1 -2 -2 -2 -3 -3 -4 -4 -4 -4 -4 -4 -4 -4 -5 -6 -6 -7 -7 -8
-0 -1 -2 -2 -3 -3 -3 -3 -4 -4 -4 -4 -4 -5 -5 -5 -6 -6 -7 -7 -8 -10
-1 -2 -2 -3 -3 -3 -4 -4 -3 -4 -4 -4 -5 -5 -6 -6 -6 -7 -7 -8 -9 -12
-1 -2 -3 -3 -4 -4 -4 -4 -4 -4 -5 -5 -6 -6 -6 -7 -7 -8 -8 -9 -11 -12
-2 -3 -3 -4 -4 -4 -4 -4 -4 -5 -5 -6 -6 -7 -7 -8 -8 -8 -8 -9 -11 -11
-2 -2 -3 -4 -4 -4 -4 -5 -5 -5 -6 -6 -7 -7 -8 -9 -9 -9 -10 -10 -10 -11

GFSNIL_850_temp_018.txt.gz
Temp
6 6 4 4 3 3 2 2 1 1 1 1 -0 -1 -2 -1 -1 -2 -2 -2 -2 -2
5 5 4 3 2 2 1 1 1 0 0 -0 -1 -1 -2 -1 -1 -2 -2 -2 -2 -3
4 4 4 3 2 1 1 0 0 -0 -0 -1 -1 -1 -2 -1 -2 -2 -2 -2 -3 -3
4 4 3 2 1 0 -0 -1 -1 -1 -1 -1 -2 -2 -2 -2 -3 -2 -2 -3 -3 -3
4 3 2 1 0 -1 -1 -1 -2 -2 -2 -2 -2 -2 -3 -3 -3 -3 -3 -3 -3 -4
3 2 1 0 -0 -1 -1 -2 -2 -2 -2 -2 -3 -3 -3 -3 -3 -3 -4 -4 -5 -5
2 1 1 -0 -1 -1 -2 -2 -2 -2 -2 -3 -3 -4 -4 -4 -4 -4 -5 -5 -6 -6
2 1 0 -1 -1 -2 -2 -2 -2 -2 -3 -4 -4 -5 -5 -5 -5 -5 -5 -6 -7 -7
1 0 -0 -1 -2 -2 -2 -2 -3 -3 -3 -4 -4 -4 -4 -5 -6 -6 -6 -7 -7 -8
1 -0 -1 -1 -2 -2 -3 -3 -3 -3 -4 -4 -5 -4 -5 -5 -6 -7 -7 -8 -8 -9
-0 -1 -1 -1 -2 -2 -3 -3 -3 -4 -4 -5 -6 -5 -5 -6 -7 -8 -8 -9 -9 -10
-1 -2 -2 -2 -2 -3 -3 -3 -3 -4 -5 -5 -6 -5 -6 -6 -7 -9 -9 -10 -10 -11
-2 -2 -2 -3 -3 -3 -4 -4 -4 -5 -5 -5 -6 -6 -7 -7 -8 -9 -10 -10 -10 -11
-2 -3 -3 -3 -4 -4 -4 -4 -5 -5 -5 -6 -6 -7 -7 -8 -8 -9 -10 -10 -10 -11

GFSNIL_850_temp_021.txt.gz
Temp
7 6 5 5 4 4 3 3 2 2 2 2 2 2 0 -0 -1 -1 -1 -1 -1 -1
7 6 4 4 3 3 3 2 2 1 1 1 1 0 -0 -1 -1 -1 -1 -2 -2 -2
5 4 4 3 3 2 2 1 1 1 1 1 1 0 -0 -0 -0 -1 -2 -2 -2 -2
5 4 4 3 3 2 1 1 1 0 0 -0 0 0 -0 -1 -1 -2 -2 -2 -2 -2
4 4 4 3 2 2 1 0 0 -0 -0 0 0 -0 -1 -2 -2 -2 -2 -2 -3 -3
4 4 3 3 2 1 1 0 -0 -0 -0 -1 -1 -2 -2 -2 -2 -2 -3 -3 -3 -4
5 4 3 2 2 1 0 -0 -1 -1 -1 -1 -1 -2 -3 -3 -3 -3 -4 -4 -5 -5
4 3 3 2 1 1 -0 -1 -1 -1 -1 -1 -2 -3 -3 -4 -4 -4 -4 -5 -5 -5
4 3 2 2 1 0 -0 -0 -1 -1 -1 -1 -3 -3 -3 -4 -5 -5 -5 -5 -5 -6
3 2 2 1 1 0 -0 -1 -1 -2 -2 -3 -4 -4 -4 -5 -5 -6 -5 -6 -7 -7
2 2 1 0 0 0 -1 -1 -2 -2 -3 -3 -4 -4 -5 -5 -6 -6 -6 -7 -7 -8
1 0 0 0 -0 -1 -1 -1 -2 -2 -3 -3 -4 -5 -5 -6 -6 -7 -7 -8 -8 -9
-0 -0 -0 -1 -1 -2 -2 -2 -2 -3 -3 -4 -5 -5 -6 -6 -7 -8 -8 -8 -8 -9
-1 -1 -1 -2 -2 -2 -2 -3 -3 -4 -5 -5 -6 -6 -7 -7 -7 -9 -9 -9 -9 -9

GFSNIL_850_temp_024.txt.gz
Temp
9 8 8 8 8 6 5 4 3 3 3 2 2 1 1 1 1 0 -0 -1 -1 -2
8 8 7 6 5 4 4 3 3 2 2 1 1 1 1 1 0 -0 -1 -1 -2 -2
8 7 5 5 4 3 3 3 2 1 1 1 0 0 0 0 -0 -0 -1 -1 -2 -2
7 5 5 4 3 3 2 2 1 1 0 0 0 0 -0 -0 -1 -1 -1 -2 -2 -3
5 5 4 4 3 3 2 1 1 0 -0 -0 -0 -0 -0 -1 -1 -2 -2 -2 -3 -4
5 5 4 4 3 3 2 1 0 -0 -0 -0 -0 -1 -2 -2 -2 -2 -3 -3 -3 -4
5 5 4 4 3 2 2 1 0 -0 -1 -1 -1 -1 -2 -2 -3 -3 -3 -4 -4 -5
6 5 4 3 3 2 1 1 -0 -0 -1 -1 -1 -2 -2 -3 -3 -4 -4 -5 -5 -5
5 4 4 3 2 2 1 1 0 -0 -1 -1 -2 -2 -3 -3 -4 -4 -5 -5 -5 -6
4 3 2 2 2 1 1 0 0 -1 -1 -2 -2 -3 -3 -4 -4 -5 -6 -6 -6 -7
2 2 2 1 1 0 0 -0 -1 -1 -2 -2 -3 -3 -4 -4 -4 -5 -6 -7 -7 -8
1 1 1 0 0 -0 -1 -1 -1 -2 -2 -2 -3 -3 -4 -5 -5 -6 -7 -7 -8 -8
0 1 1 -1 -1 -2 -2 -2 -2 -2 -2 -3 -3 -4 -4 -5 -6 -6 -7 -8 -8 -9
0 -0 -2 -3 -3 -3 -3 -3 -3 -3 -3 -3 -4 -5 -5 -5 -6 -7 -7 -8 -8 -9

GFSNIL_850_temp_027.txt.gz
Temp
10 10 9 9 9 9 8 7 6 6 5 3 3 2 1 1 1 1 0 -0 -1 -1
10 9 9 9 8 6 6 6 5 4 3 3 2 1 1 0 0 -0 -1 -1 -1 -2
9 8 8 7 6 6 5 4 3 3 2 1 1 0 0 -0 -0 -1 -1 -1 -1 -2
8 7 6 5 5 4 4 3 3 2 1 1 -0 -0 -0 -0 -0 -1 -1 -2 -2 -3
7 6 5 5 4 3 3 3 2 2 1 0 -0 -0 -1 -1 -1 -1 -2 -2 -3 -3
6 5 5 4 4 3 3 2 2 1 1 -0 -1 -1 -1 -1 -2 -2 -2 -3 -3 -4
6 5 4 4 4 3 3 2 2 1 0 -0 -1 -1 -1 -1 -2 -3 -3 -3 -4 -5
5 4 4 4 3 3 2 2 1 1 0 -0 -1 -1 -1 -2 -3 -3 -4 -4 -5 -5
5 4 4 3 2 1 2 1 1 0 -0 -0 -1 -1 -2 -2 -3 -3 -4 -4 -5 -5
5 4 2 1 0 1 1 1 0 0 -0 -1 -1 -2 -2 -3 -3 -4 -4 -5 -6 -6
3 2 0 -1 1 -0 1 -0 -0 -1 -1 -1 -2 -2 -3 -3 -4 -4 -5 -6 -6 -7
-0 -2 -2 -1 -0 1 -1 -1 -1 -2 -2 -2 -2 -3 -3 -4 -4 -5 -6 -6 -7 -7
-1 -1 -1 0 0 -3 -2 -3 -3 -2 -2 -2 -3 -3 -3 -4 -5 -5 -6 -6 -7 -8
-1 -1 0 -1 -2 -3 -3 -3 -3 -3 -3 -3 -3 -3 -4 -4 -5 -6 -6 -6 -7 -8

GFSNIL_850_temp_030.txt.gz
Temp
11 10 10 9 8 8 7 6 5 5 4 4 3 3 2 2 1 0 0 -0 -1 -1
10 9 9 8 8 7 6 5 4 4 4 3 3 2 2 1 0 0 -0 -1 -1 -1
9 9 8 8 7 6 5 4 5 4 4 3 2 1 1 0 -0 -0 -1 -1 -1 -2
9 8 8 7 6 5 4 3 4 4 3 2 1 1 0 -1 -1 -1 -1 -1 -2 -2
9 8 8 7 6 5 3 3 3 3 2 2 1 1 0 -1 -1 -1 -1 -2 -3 -3
8 8 7 6 5 4 3 3 2 2 2 2 1 0 -0 -1 -1 -2 -2 -3 -3 -4
8 7 6 5 4 3 3 2 1 2 2 1 0 -0 -1 -1 -1 -2 -3 -4 -4 -4
8 7 5 4 4 3 2 1 0 1 1 1 0 -0 -1 -1 -2 -2 -3 -3 -4 -4
6 5 5 4 2 2 1 -1 1 0 1 0 -0 -1 -1 -2 -2 -3 -3 -4 -4 -5
5 5 3 2 1 -0 -1 -1 0 1 -0 -1 -1 -1 -2 -2 -3 -3 -3 -4 -5 -5
4 3 2 -0 -1 -0 -0 -1 1 -0 -1 -1 -2 -2 -2 -3 -3 -4 -4 -5 -5 -6
0 -0 -1 -0 0 -1 0 0 -1 -1 -2 -2 -2 -2 -3 -3 -4 -4 -5 -5 -6 -6
-1 0 0 -0 -1 -0 -1 -1 -2 -2 -3 -3 -3 -3 -3 -3 -4 -4 -5 -5 -6 -6
0 -0 -2 -1 -1 -1 -2 -2 -3 -2 -2 -3 -3 -4 -4 -4 -4 -5 -5 -6 -6 -7